Tracking 29799 objects as of 11-Oct-2024
HD Live streaming from Space Station
objects crossing your sky now

SL-8 DEB

Track SL-8 DEB now!
10-day predictions


NORAD ID: 21861
Int'l Code: 1991-009CA
Perigee: 1,468.9 km
Apogee: 1,686.9 km
Inclination: 74.0 °
Period: 117.5 minutes
Semi major axis: 7948 km
RCS: 0.0407 m2 (small)
Launch date: February 12, 1991
Source: Commonwealth of Independent States (former USSR) (CIS)
Launch site: PLESETSK MISSILE AND SPACE COMPLEX (PKMTR)

Note: This is SATELLITE DEBRIS
Your satellite tracking list
Your tracking list is empty




NASA's NSSDC Master Catalog

Two Line Element Set (TLE):
1 21861U 91009CA  24283.96571455  .00000150  00000-0  14592-2 0  9997
2 21861  74.0189  99.8887 0137081 309.9851 208.0571 12.25019646501413
Source of the keplerian elements: AFSPC